Satellite-Ground Cal/Val Site Overpasses Predictions

Prediction of Satellite NPP Overpassing Cal/Val Site: Antarctic Dome C

Ground Cal/Val Site Location: Latitude: -75.10, Longitude: 123.35; Satellite-Ground Site NADIR distance within 100 km.

Table of predicted overpasses for the next 14.0 days since TLE Epoch: 1/8/2018
Interval Starting Time Ending Time Minimum Distance Time Minimum Distance (km)
1 01/10/2018 15:07:46 01/10/2018 15:07:53 01/10/2018 15:07:50 96.63
2 01/11/2018 14:48:45 01/11/2018 14:49:14 01/11/2018 14:49:00 14.74
3 01/13/2018 07:31:34 01/13/2018 07:32:03 01/13/2018 07:31:48 1.91
4 01/16/2018 14:54:58 01/16/2018 14:55:27 01/16/2018 14:55:13 21.69
5 01/17/2018 14:36:16 01/17/2018 14:36:31 01/17/2018 14:36:23 85.55
6 01/18/2018 07:37:47 01/18/2018 07:38:14 01/18/2018 07:38:01 37.22
7 01/19/2018 07:19:01 01/19/2018 07:19:21 01/19/2018 07:19:11 72.81
8 01/21/2018 15:01:15 01/21/2018 15:01:38 01/21/2018 15:01:26 58.41


NCC Satellite Cal/Val Overpasses Prediction Service
